map of LAD home
Great Circle Mapper logo
LAD - Airport
Location
City:  Luanda, Angola
Name:Aeroporto 4 de Fevereiro
ICAO / IATA:FNLU / LAD

Details
Type:Airport (Aerodrome, Airfield)
Use:Public/Civil, Military, International (customs port of entry)
Latitude:851'30"S (-8.858374)
Longitude:1313'52"E (13.231178)
Datum:other
Elevation:243 ft (74 m)
Runways:2
Longest:12190 × 148 ft (3716 × 45 m), paved

Time
Time Zone:UTC+1
Local Time:

Weather
METAR:FNLU 231700Z 25007KT 9999 FEW020 BKN230 21/17 Q1016 NOSIG
TAF:FNLU 231700Z 2318/2424 20005KT 9999 SCT020
TEMPO 2318/2324 CAVOK
BECMG 2400/2402 15005KT
TEMPO 2406/2410 VRB03KT 3000 BR SCT018 BKN023
BECMG 2412/2414 27010KT
BECMG 2418/2420 19005KT

Related Locations
Nearby:
Farthest:PLPA: 12062 mi / 19412 km
Palmyra Island Atoll [Palmyra Airport (Cooper)], UM

Find:

   beyond  
but within

Other Information
Maps:
NOTAMs:
Links:
Sources:

  
flag of Angola   

Sectional Chart

Flight Planning
at skyvector.com

Satellite Image

Google Maps Satellite View

 

Copyright © 2004-2014 Karl L. Swartz. All rights reserved.
The Great Circle Mapper name and logo are trademarks of the Great Circle Mapper.
All other trademarks mentioned herein belong to their respective owners.
Please see credits for attibutions and further copyright information.

  Follow gcmap on Facebook Follow gcmap on Twitter

hCard Microformat

Geo Microformat